Flag for Norway Weather past 2 weeks in Knarrevik/Straume, Norway

Now
55 °F

Drizzle. Low clouds.


Feels Like: 54 °F
Forecast: 51 / 57 °F
Wind: 5 mph from West

Location: Bergen / Flesland

Current Time: Sep 20, 2014 at 6:56:07 PM

Latest Report: Sep 20, 2014 at 3:00 PM


Visibility: 2 mi

Pressure: 29.93 "Hg

Humidity: 96%

Dew point: 54 °F

Location of Knarrevik/StraumeLocation

Historic Weather in Knarrevik/Straume — Graph

°F

Knarrevik/Straume temperature yesterday

Maximum temperature yesterday: 65 °F (at 4:00 PM)
Minimum temperature yesterday: 46 °F (at 5:00 AM)
Average temperature yesterday: 56 °F

Past Weeks' High & Low Weather Summary

 TemperatureHumidityPressure
High69 °F (Sep 16, 5:00 PM)98% (Sep 11, 8:00 AM)30.48 "Hg (Sep 11, 8:00 AM)
Low46 °F (Sep 19, 5:00 AM)31% (Sep 16, 5:00 PM)29.75 "Hg (Sep 7, 6:00 AM)
Average56 °F82%30.15 "Hg
* Reported Sep 5 3:00 PM — Sep 20 3:00 PM, Knarrevik/Straume, Weather by CustomWeather, © 2014

Note: Actual official high and low records may vary slightly from our data, if they occured in-between our weather recording intervals... More about our weather records

Advertising

Knarrevik/Straume weather history for previous 24 hours

 ConditionsComfort  
Time TempWeatherWind HumidityBarometerVisibility
3:00 PM
Sep 20
55 °FDrizzle. Low clouds.5 mph96%29.93 "Hg2 mi
2:00 PM54 °FRain showers. Low clouds.2 mph94%29.93 "Hg8 mi
1:00 PM54 °FRain showers. Overcast.3 mph95%29.93 "Hg5 mi
11:00 AM55 °FRain. Overcast.7 mph90%29.94 "Hg4 mi
10:00 AM55 °FRain. Overcast.6 mph89%29.94 "Hg5 mi
9:00 AM58 °FRain showers. Overcast.7 mph77%29.94 "Hg9 mi
8:00 AM58 °FRain showers. Overcast.6 mph75%29.95 "Hg15 mi
7:00 AM58 °FOvercast.5 mph72%29.96 "Hg19 mi
6:00 AM57 °FOvercast.5 mph71%29.95 "Hg19 mi
5:00 AM57 °FPassing clouds.5 mph76%29.96 "Hg15 mi
4:00 AM55 °FOvercast.3 mph85%29.98 "Hg12 mi
3:00 AM53 °FOvercast.2 mph90%29.99 "Hg9 mi
2:00 AM53 °FOvercast.1 mph88%30.00 "Hg10 mi
1:00 AM53 °FPassing clouds.1 mph88%30.00 "Hg9 mi
12:00 AM54 °FPassing clouds.1 mph84%30.01 "Hg12 mi
11:00 PM
Sep 19
56 °FPassing clouds.2 mph82%30.02 "Hg11 mi
10:00 PM55 °FPassing clouds.1 mph83%30.03 "Hg13 mi
9:00 PM57 °FClear.1 mph76%30.02 "Hg12 mi
8:00 PM59 °FPassing clouds.No wind76%30.02 "Hg16 mi
7:00 PM63 °FOvercast.1 mph63%30.02 "Hg16 mi
6:00 PM64 °FPartly sunny.1 mph56%30.03 "Hg19 mi
Weather by CustomWeather, © 2014

See weather overviewHow to use our weather pages